Miscellaneous Local Product
Issued by NWS North Platte, NE

Home | Current Version | Previous Version | Graphics & Text | Print | Product List | Glossary On
Versions: 1 2 3 4 5 6 7 8 9 10 11 12 13 14 15 16 17 18 19 20 21 22 23 24 25 26 27 28 29 30 31 32 33 34 35 36 37 38 39 40 41 42 43 44 45 46 47 48 49 50
000
AXUS43 KLBF 291810
MISLBF


WESTERN AND NORTH CENTRAL NEBRASKA HOURLY WEATHER ROUNDUP
NATIONAL WEATHER SERVICE NORTH PLATTE NE
100 PM CDT MON MAY 29 2017

NOTE: "FAIR" INDICATES FEW OR NO CLOUDS BELOW 12,000 FEET WITH NO
SIGNIFICANT WEATHER AND/OR OBSTRUCTIONS TO VISIBILITY.

NOTE: STATIONS NOT REPORTING VARIABLES SUCH AS SKY/WEATHER OR
PRESSURE ARE PROVIDED BY RAWS AND APRS NETWORKS AND ARE NOT UNDER
NATIONAL WEATHER SERVICE QUALITY CONTROL.

...OBSERVATIONS IN AND NEAR THE EASTERN PANHANDLE OF NEBRASKA...

CITY           SKY/WX    TMP DP  RH WIND       PRES   REMARKS
PINE RIDGE     MOSUNNY   64  41  42 MISG      30.17S
GORDON         FAIR      64  36  36 W7        30.17S
CHADRON        SUNNY     66  37  34 NW14G28   30.16S
ALLIANCE       MOSUNNY   67  37  33 NW20G28   30.17F
SIDNEY         SUNNY     68  41  37 N17       30.21F
CRESCENT LAKE    N/A     67  36  32 N13G23      N/A
$$

...OBSERVATIONS IN NORTHERN NEBRASKA AND FAR SOUTHERN SOUTH DAKOTA...

CITY           SKY/WX    TMP DP  RH WIND       PRES   REMARKS
WINNER         FAIR      66  41  40 NW24G36   30.10R
VALENTINE      PTSUNNY   64  35  34 NW13G23   30.14R
THEDFORD       SUNNY     67  38  34 NW16G22   30.15F
AINSWORTH      PTSUNNY   64  41  43 NW18G26   30.14S
O`NEILL        MOSUNNY   66  36  32 NW23G32   30.09S
ORD            SUNNY     68  39  34 NW16G29   30.09S
BROKEN BOW     SUNNY     70  37  29 N16G24    30.12S
VALENTINE NWR    N/A     64  40  41 NW12        N/A
HALSEY           N/A     68  38  33 NW7G14      N/A
BUTTE            N/A     62  41  46 NW20G31     N/A
CHAMBERS         N/A     68  41  36 N3G13       N/A
EWING            N/A     66  39  37 NW15G26     N/A
$$

...OBSERVATIONS IN SOUTHWEST NEBRASKA AND FAR NORTHEAST COLORADO...

CITY           SKY/WX    TMP DP  RH WIND       PRES   REMARKS
WRAY           FAIR      73  37  27 NE9G17    30.18F
IMPERIAL       MOSUNNY   72  38  29 N17G26    30.16F
OGALLALA       MOSUNNY   71  40  32 NW10G22   30.17S
NORTH PLATTE   SUNNY     71  44  37 NW17G25   30.13F
MCCOOK         SUNNY     76  40  27 NW22G30   30.13S
LEXINGTON      SUNNY     73  35  25 NW16G23   30.12S
STAPLETON        N/A     69  37  31 CALM        N/A
GOTHENBURG       N/A     69  37  31 NW7         N/A
CALLAWAY         N/A     67  42  39 NW16        N/A
$$

...OBSERVATIONS IN CENTRAL LINCOLN COUNTY AREA...

CITY           SKY/WX    TMP DP  RH WIND       PRES   REMARKS
N.P. AIRPORT   SUNNY     71  44  37 NW17G25   30.13F
N.P. DOWNTOWN    N/A     70  41  34 NW8G16      N/A
N.P. SOUTHEAST   N/A     70  40  33 N12G20      N/A
N.P. HILLCREST   N/A     69  39  34 N15G23      N/A
$$

...SOME OBSERVATIONS FROM AROUND THE REGION...

CITY           SKY/WX    TMP DP  RH WIND       PRES   REMARKS
DENVER         MOSUNNY   65  43  44 E10       30.24F
LIMON          MOSUNNY   64  43  46 VRB6      30.26F
ASPEN          MOSUNNY   64  25  22 NW9G16    30.28F
LARAMIE        CLOUDY    57  33  40 N10       30.30F
CASPER         PTSUNNY   62  39  42 N5        30.25F
CHEYENNE       CLOUDY    60  35  39 VRB7      30.27F
SCOTTSBLUFF    MOSUNNY   70  36  28 NW16G23   30.19F
GRAND ISLAND   MOSUNNY   73  41  31 NW20G25   30.09R
OMAHA          MOSUNNY   75  41  29 NW23G30   30.01R
SIOUX FALLS    PTSUNNY   60  46  59 NW22G31   29.99R
PIERRE         PTSUNNY   65  37  35 NW22G31   30.06S
RAPID CITY     SUNNY     66  31  27 N23G32    30.15S
BISMARCK       CLOUDY    61  39  44 NW22G31   30.04S
KANSAS CITY    MOSUNNY   77  50  38 NW13      30.00F
HILL CITY      SUNNY     78  41  26 N20G25    30.13S
WICHITA        MOSUNNY   81  50  33 N8        30.06S
DODGE CITY     SUNNY     77  47  34 NW9       30.15S
OKLAHOMA CITY  MOSUNNY   85  43  22 VRB3      30.08F
DALLAS         PTSUNNY   84  52  33 S5        30.07F
AMARILLO       SUNNY     79  36  21 NE3       30.19F
$$




USA.gov is the U.S. government's official web portal to all federal, state and local government web resources and services.